Regional Weather Roundup
Issued by NWS

Home | Current Version | Previous Version | Graphics & Text | Print | Product List | Glossary On
Versions: 1 2 3 4 5 6 7 8 9 10 11 12 13 14 15 16 17 18 19 20 21 22 23 24 25 26 27 28 29 30 31 32 33 34 35 36 37 38 39 40 41 42 43 44 45 46 47 48 49 50
000
ASUS43 KLMK 151510
RWRKY
KENTUCKY REGIONAL WEATHER ROUNDUP
NATIONAL WEATHER SERVICE LOUISVILLE KY
1000 AM EST FRI DEC 15 2017

NOTE "FAIR" INDICATES FEW OR NO CLOUDS BELOW 12,000 FEET
WITH NO SIGNIFICANT WEATHER AND/OR OBSTRUCTIONS TO VISIBILITY.

KYZ001>023-026-027-061>063-070>075-151600-
WESTERN AND SOUTH CENTRAL KENTUCKY

CITY           SKY/WX    TMP DP  RH WIND       PRES   REMARKS
PADUCAH        CLOUDY    34  21  59 SW6       30.17F WCI  29
HENDERSON      SUNNY     32  21  64 W8        30.15S WCI  25
OWENSBORO      CLOUDY    31  22  69 W13       30.15R WCI  21
HOPKINSVILLE   CLOUDY    32  21  62 W9        30.16R WCI  25
BOWLING GREEN  CLOUDY    32  20  61 W12       30.16R WCI  23
GLASGOW        CLOUDY    31  22  68 W9        30.14R WCI  23
$$

KYZ024-025-028>034-038-045-046-053-151600-
NORTH CENTRAL KENTUCKY

CITY           SKY/WX    TMP DP  RH WIND       PRES   REMARKS
LOUISVILLE/SDF CLOUDY    32  20  61 W12       30.10R WCI  23
LOUISVILLE/LOU CLOUDY    31  22  69 W10       30.11R WCI  22
FORT KNOX      CLOUDY    30  21  67 W8        30.08S WCI  23
$$

KYZ035>037-039>044-047>052-055>060-089>105-151600-
NORTHEAST KENTUCKY

CITY           SKY/WX    TMP DP  RH WIND       PRES   REMARKS
LEXINGTON      MOSUNNY   31  19  61 W10       30.08R WCI  22
COVINGTON      CLOUDY    25  19  78 SW8       30.03R WCI  16
FRANKFORT      CLOUDY    30  18  60 SW7       30.07R WCI  23
$$

KYZ054-064>069-076>088-106>120-151600-
SOUTHEAST KENTUCKY

CITY           SKY/WX    TMP DP  RH WIND       PRES   REMARKS
JACKSON        CLOUDY    28  19  69 VRB6      30.04R WCI  22
LONDON         CLOUDY    29  18  63 W6        30.08R WCI  23
SOMERSET       CLOUDY    30  19  64 W12       30.12R WCI  21
MIDDLESBORO    CLOUDY    32  24  71 NW6       30.07R WCI  27
MONTICELLO     CLOUDY    31  23  72 NW10      30.12R WCI  22
$$





USA.gov is the U.S. government's official web portal to all federal, state and local government web resources and services.